User: anonymous   Login
Location: Gniazdowice
(50.2124°N, 20.2673°E)
Time: 23:53:27
(UTC+00:00)
Language:

CZ-2D R/B - Orbit

View from above orbital plane
View from above orbital plane
View from above satellite
View from above satellite

Ground track
Ground track

The orbit data is extracted from the following two-line orbital elements,

1 37932U 11068C   24204.42730760  .00000381  00000-0  18895-3 0  9997
2 37932  98.7974 146.1513 0037926 101.5103   7.5920 14.22542460657684
Epoch (UTC): 22 July 2024 10:15:19
Eccentricity: 0.0037926
inclination: 98.7974°
perigee height: 789 km
apogee height: 844 km
right ascension of ascending node: 146.1513°
argument of perigee: 101.5103°
revolutions per day: 14.22542460
mean anomaly at epoch: 7.5920°
orbit number at epoch: 65768

The dashed part of the orbit path shows where the satellite is in the earth's shadow,  

DLR